Weather History for Needles, CA

Change the Weather History Date:

Saturday, March 16, 2013

  Actual Average Record
Temperature  
Mean Temperature 78 °F -  
Max Temperature 91 °F 77 °F 98 °F (2007)
Min Temperature 66 °F 50 °F 34 °F (1991)
Cooling Degree Days 14    
Growing Degree Days 28 (Base 50)    
Moisture  
Dew Point 29 °F    
Average Humidity 18    
Maximum Humidity 32    
Minimum Humidity 9    
Precipitation  
Precipitation 0.00 in - - ()
Sea Level Pressure  
Sea Level Pressure 29.68 in    
Wind  
Wind Speed 5 mph (NNW)    
Max Wind Speed 13 mph    
Max Gust Speed -    
Visibility 10 miles    
Events      
Averages and records for this station are not official NWS values.
T = Trace of Precipitation, MM = Missing Value Source: NWS Daily Summary

Daily Weather History Graph

Daily Weather History Graph

Search for Another Location

Airport:

Trip Planner

Search our weather history database for the weather conditions in past years. The results will help you decide how hot, cold, wet, or windy it might be!

Date:

Astronomy

Mar. 16, 2013 Rise Set
Actual Time 6:47 AM PDT 6:47 PM PDT
Civil Twilight 6:22 AM PDT 7:12 PM PDT
Nautical Twilight 5:52 AM PDT 7:41 PM PDT
Astronomical Twilight 5:23 AM PDT 8:11 PM PDT
Moon 9:32 AM PDT (3/16) 11:46 PM PDT (3/16)
Length of Visible Light 12h 50m
Length of Day
12h 00m
Waxing Crescent, 24% of the Moon is Illuminated
Mar 16
Waxing Crescent
Mar 19
First Quarter
Mar 27
Full
Apr 2
Last Quarter
Apr 10
New

Hourly Weather History & Observations

Time (PDT) Temp. Dew Point Humidity Pressure Visibility Wind Dir Wind Speed Gust Speed Precip Events Conditions
12:56 AM 73.0 °F 33.1 °F 23% 29.73 in 10.0 mi WNW 6.9 mph - N/A   Clear
1:56 AM 70.0 °F 34.0 °F 27% 29.72 in 10.0 mi ENE 4.6 mph - N/A   Clear
2:56 AM 69.1 °F 34.0 °F 27% 29.70 in 10.0 mi Calm Calm - N/A   Clear
3:56 AM 70.0 °F 33.1 °F 26% 29.69 in 10.0 mi Calm Calm - N/A   Clear
4:56 AM 66.9 °F 34.0 °F 30% 29.69 in 10.0 mi WNW 4.6 mph - N/A   Clear
5:56 AM 66.9 °F 33.1 °F 28% 29.69 in 10.0 mi North 5.8 mph - N/A   Clear
6:56 AM 66.0 °F 35.1 °F 32% 29.70 in 10.0 mi West 3.5 mph - N/A   Clear
7:56 AM 69.1 °F 33.1 °F 26% 29.72 in 10.0 mi Calm Calm - N/A   Clear
8:56 AM 72.0 °F 34.0 °F 25% 29.74 in 10.0 mi Calm Calm - N/A   Clear
9:56 AM 75.9 °F 34.0 °F 22% 29.75 in 10.0 mi NNE 4.6 mph - N/A   Clear
10:56 AM 80.1 °F 30.0 °F 16% 29.74 in 10.0 mi NNE 5.8 mph - N/A   Clear
11:56 AM 82.9 °F 30.0 °F 15% 29.73 in 10.0 mi Calm Calm - N/A   Clear
12:56 PM 84.9 °F 27.0 °F 12% 29.72 in 10.0 mi Variable 3.5 mph - N/A   Clear
1:56 PM 89.1 °F 30.0 °F 12% 29.68 in 10.0 mi NE 9.2 mph - N/A   Clear
2:56 PM 89.1 °F 30.9 °F 12% 29.66 in 10.0 mi NE 6.9 mph - N/A   Clear
3:56 PM 90.0 °F 28.9 °F 11% 29.64 in 10.0 mi Calm Calm - N/A   Clear
4:56 PM 91.9 °F 25.0 °F 9% 29.62 in 10.0 mi ENE 6.9 mph - N/A   Clear
5:56 PM 91.0 °F 25.0 °F 9% 29.62 in 10.0 mi NE 3.5 mph - N/A   Clear
6:56 PM 86.0 °F 27.0 °F 12% 29.63 in 10.0 mi West 3.5 mph - N/A   Clear
7:56 PM 82.0 °F 24.1 °F 12% 29.64 in 10.0 mi West 12.7 mph - N/A   Clear
8:56 PM 81.0 °F 19.0 °F 10% 29.65 in 10.0 mi West 9.2 mph - N/A   Clear
9:56 PM 79.0 °F 17.1 °F 10% 29.65 in 10.0 mi West 9.2 mph - N/A   Clear
10:56 PM 78.1 °F 19.0 °F 11% 29.65 in 10.0 mi WSW 12.7 mph - N/A   Clear
11:56 PM 75.0 °F 23.0 °F 14% 29.64 in 10.0 mi Calm Calm - N/A   Clear